Date String (YYYY-MM-DD hh:mm:ss) UTC,Instrument flags,absolute air pressure of the measurement (hPa),sample flow rate (lpm),inlet stack bypass flow (lpm),air temperature of the measurement (°C),ambient temperature measured by the external sensor (°C),aerosol sample conditioner tube jacket temperature (°C),OPC LED temperature (°C),internal box temperature (°C),relative humidity of the measurement (%),span deviation,mass concentration of particles derived from Lorenz-Mie calculation of OPC scattering (μg/m³),mass concentration of particles derived from Lorenz-Mie calculation of OPC scattering (μg/m³),mass concentration of particles derived from Lorenz-Mie calculation of OPC scattering (μg/m³)
DateTimeUTC,F1_M11,P_M11,Q1_M11,Q2_M11,T1_M11,T2_M11,T3_M11,T4_M11,T5_M11,U1_M11,ZSPAN_M11,X2_M11,X0_M11,X1_M11
2023-08-13 07:00:00,SystemResetWarning,0830.8,5.01,000.00,029.2,026.0,000.0,037.7,030.5,22.0,0000.0,0003.30,0006.70,0002.72
2023-08-13 07:01:00,SystemResetWarning,0830.9,5.00,000.00,029.2,026.4,000.0,037.7,030.6,22.1,0000.0,0003.30,0006.20,0002.73
2023-08-13 07:02:00,SystemResetWarning,0830.9,4.99,000.00,029.2,026.7,000.0,037.7,030.7,22.1,0000.0,0003.30,0006.10,0002.73
2023-08-13 07:03:00,SystemResetWarning,0830.9,5.00,000.00,029.2,027.1,000.0,037.7,030.8,22.1,0000.0,0003.29,0005.98,0002.72
2023-08-13 07:04:00,SystemResetWarning,0830.9,5.00,000.00,029.2,027.3,000.0,037.7,030.9,22.0,0000.0,0003.28,0005.93,0002.71
2023-08-13 07:05:00,SystemResetWarning,0830.9,5.01,000.00,029.3,027.6,000.0,037.8,030.9,22.0,0000.0,0003.27,0006.01,0002.70
2023-08-13 07:06:00,SystemResetWarning,0830.9,5.00,000.00,029.3,027.8,000.0,037.8,031.0,22.0,0000.0,0003.26,0006.01,0002.69
2023-08-13 07:07:00,SystemResetWarning,0830.8,5.00,000.00,029.3,027.9,000.0,037.8,031.0,21.9,0000.0,0003.26,0006.46,0002.69
2023-08-13 07:08:00,SystemResetWarning,0830.9,4.99,000.00,029.4,028.1,000.0,037.8,031.1,21.9,0000.0,0003.29,0006.48,0002.71
2023-08-13 07:09:00,SystemResetWarning,0830.9,5.00,000.00,029.4,028.2,000.0,037.8,031.1,21.9,0000.0,0003.30,0005.84,0002.73
2023-08-13 07:10:00,SystemResetWarning,0830.9,5.00,000.00,029.4,028.3,000.0,037.9,031.2,21.9,0000.0,0003.31,0005.72,0002.74
2023-08-13 07:11:00,SystemResetWarning,0830.9,4.99,000.00,029.5,028.2,000.0,037.9,031.2,21.9,0000.0,0003.32,0005.81,0002.73
2023-08-13 07:12:00,SystemResetWarning,0830.8,4.98,000.00,029.4,026.6,000.0,037.8,030.9,21.9,0000.0,0003.33,0005.89,0002.76
2023-08-13 07:13:00,SystemResetWarning,0830.8,5.00,000.00,029.4,025.7,000.0,037.6,030.7,22.0,0000.0,0003.34,0006.05,0002.77
2023-08-13 07:14:00,SystemResetWarning,0830.8,5.00,000.00,029.3,025.8,000.0,037.6,030.5,21.9,0000.0,0003.35,0006.32,0002.78
2023-08-13 07:15:00,SystemResetWarning,0830.8,5.01,000.00,029.2,026.0,000.0,037.7,030.5,22.1,0000.0,0003.35,0006.36,0002.81
2023-08-13 07:16:00,SystemResetWarning,0830.8,5.00,000.00,029.2,026.4,000.0,037.7,030.6,22.0,0000.0,0003.37,0006.47,0002.83
2023-08-13 07:17:00,SystemResetWarning,0830.8,5.00,000.00,029.2,026.7,000.0,037.7,030.7,22.1,0000.0,0003.40,0006.60,0002.85
2023-08-13 07:18:00,SystemResetWarning,0830.8,5.00,000.00,029.2,027.1,000.0,037.8,030.8,22.2,0000.0,0003.44,0006.60,0002.86
2023-08-13 07:19:00,SystemResetWarning,0830.8,4.98,000.00,029.2,027.3,000.0,037.8,030.9,22.1,0000.0,0003.41,0006.52,0002.85
2023-08-13 07:20:00,SystemResetWarning,0830.8,5.00,000.00,029.3,027.6,000.0,037.8,030.9,22.0,0000.0,0003.40,0006.75,0002.84
2023-08-13 07:21:00,SystemResetWarning,0830.8,5.01,000.00,029.3,027.8,000.0,037.8,031.0,21.8,0000.0,0003.40,0007.33,0002.84
2023-08-13 07:22:00,SystemResetWarning,0830.8,4.99,000.00,029.3,027.9,000.0,037.8,031.0,21.9,0000.0,0003.37,0007.65,0002.84
2023-08-13 07:23:00,SystemResetWarning,0830.8,4.99,000.00,029.4,028.1,000.0,037.9,031.1,21.9,0000.0,0003.34,0007.54,0002.83
2023-08-13 07:24:00,SystemResetWarning,0830.8,5.00,000.00,029.4,028.2,000.0,037.9,031.1,21.8,0000.0,0003.34,0007.47,0002.83
2023-08-13 07:25:00,SystemResetWarning,0830.8,5.01,000.00,029.5,028.3,000.0,037.9,031.2,21.7,0000.0,0003.34,0007.26,0002.83
2023-08-13 07:26:00,SystemResetWarning,0830.8,4.99,000.00,029.5,027.4,000.0,037.8,031.0,21.7,0000.0,0003.34,0007.20,0002.82
2023-08-13 07:27:00,SystemResetWarning,0830.9,4.99,000.00,029.4,025.8,000.0,037.7,030.8,21.7,0000.0,0003.31,0006.91,0002.82
2023-08-13 07:28:00,SystemResetWarning,0830.9,5.02,000.00,029.3,025.7,000.0,037.6,030.7,21.7,0000.0,0003.30,0006.98,0002.81
2023-08-13 07:29:00,SystemResetWarning,0830.8,5.00,000.00,029.3,025.9,000.0,037.7,030.6,21.9,0000.0,0003.26,0006.85,0002.81
2023-08-13 07:30:00,SystemResetWarning,0830.8,4.99,000.00,029.2,026.3,000.0,037.7,030.7,22.0,0000.0,0003.23,0007.33,0002.81
2023-08-13 07:31:00,SystemResetWarning,0830.8,5.00,000.00,029.2,026.6,000.0,037.7,030.7,22.0,0000.0,0003.24,0007.41,0002.81
2023-08-13 07:32:00,SystemResetWarning,0830.8,5.01,000.00,029.2,026.9,000.0,037.7,030.8,21.9,0000.0,0003.25,0006.50,0002.81
2023-08-13 07:33:00,SystemResetWarning,0830.9,5.00,000.00,029.3,027.2,000.0,037.8,030.9,22.0,0000.0,0003.24,0005.76,0002.80
2023-08-13 07:34:00,SystemResetWarning,0830.9,5.00,000.00,029.3,027.5,000.0,037.8,030.9,22.0,0000.0,0003.26,0005.86,0002.81
2023-08-13 07:35:00,SystemResetWarning,0830.9,5.00,000.00,029.3,027.7,000.0,037.8,031.0,22.0,0000.0,0003.26,0006.19,0002.81
2023-08-13 07:36:00,SystemResetWarning,0830.9,5.00,000.00,029.3,027.9,000.0,037.8,031.0,22.0,0000.0,0003.30,0006.41,0002.82
2023-08-13 07:37:00,SystemResetWarning,0830.9,5.00,000.00,029.4,028.0,000.0,037.8,031.1,21.9,0000.0,0003.31,0006.54,0002.83
2023-08-13 07:38:00,SystemResetWarning,0830.9,5.00,000.00,029.4,028.2,000.0,037.9,031.1,21.9,0000.0,0003.36,0007.39,0002.81
2023-08-13 07:39:00,SystemResetWarning,0830.9,4.99,000.00,029.4,028.3,000.0,037.9,031.2,21.8,0000.0,0003.36,0007.51,0002.80
2023-08-13 07:40:00,SystemResetWarning,0830.9,5.00,000.00,029.5,028.4,000.0,037.9,031.2,21.8,0000.0,0003.36,0007.50,0002.79
2023-08-13 07:41:00,SystemResetWarning,0831.0,4.99,000.00,029.5,027.2,000.0,037.8,031.1,21.8,0000.0,0003.36,0006.89,0002.78
2023-08-13 07:42:00,SystemResetWarning,0830.9,5.00,000.00,029.4,025.8,000.0,037.7,030.8,21.8,0000.0,0003.38,0006.89,0002.77
2023-08-13 07:43:00,SystemResetWarning,0830.9,5.00,000.00,029.4,025.7,000.0,037.7,030.7,22.0,0000.0,0003.39,0006.93,0002.76
2023-08-13 07:44:00,SystemResetWarning,0830.9,5.01,000.00,029.3,026.0,000.0,037.7,030.7,22.0,0000.0,0003.38,0006.97,0002.76
2023-08-13 07:45:00,SystemResetWarning,0831.0,5.01,000.00,029.3,026.3,000.0,037.7,030.7,22.2,0000.0,0003.37,0006.99,0002.75
2023-08-13 07:46:00,SystemResetWarning,0830.9,5.00,000.00,029.3,026.7,000.0,037.8,030.8,22.3,0000.0,0003.37,0006.63,0002.73
2023-08-13 07:47:00,SystemResetWarning,0831.0,5.01,000.00,029.3,027.0,000.0,037.8,030.9,22.2,0000.0,0003.32,0006.45,0002.69
2023-08-13 07:48:00,SystemResetWarning,0831.0,5.00,000.00,029.3,027.3,000.0,037.8,030.9,22.1,0000.0,0003.30,0006.31,0002.68
2023-08-13 07:49:00,SystemResetWarning,0831.0,4.99,000.00,029.3,027.5,000.0,037.8,031.0,22.2,0000.0,0003.24,0005.33,0002.67
2023-08-13 07:50:00,SystemResetWarning,0831.0,5.00,000.00,029.3,027.7,000.0,037.8,031.0,22.3,0000.0,0003.23,0005.05,0002.67
2023-08-13 07:51:00,SystemResetWarning,0830.9,5.00,000.00,029.4,027.9,000.0,037.9,031.1,22.0,0000.0,0003.23,0004.87,0002.66
2023-08-13 07:52:00,SystemResetWarning,0830.9,4.99,000.00,029.4,028.0,000.0,037.9,031.1,21.9,0000.0,0003.24,0005.05,0002.66
2023-08-13 07:53:00,SystemResetWarning,0830.9,5.01,000.00,029.4,028.2,000.0,037.9,031.2,21.8,0000.0,0003.21,0004.98,0002.66
2023-08-13 07:54:00,SystemResetWarning,0830.9,5.01,000.00,029.5,028.3,000.0,037.9,031.2,21.6,0000.0,0003.20,0005.13,0002.67
2023-08-13 07:55:00,SystemResetWarning,0830.9,4.99,000.00,029.5,028.4,000.0,037.9,031.2,21.7,0000.0,0003.18,0005.04,0002.65
2023-08-13 07:56:00,SystemResetWarning,0830.9,4.99,000.00,029.5,028.1,000.0,037.9,031.2,21.8,0000.0,0003.16,0004.90,0002.64
2023-08-13 07:57:00,SystemResetWarning,0830.9,5.00,000.00,029.5,026.3,000.0,037.8,030.9,21.6,0000.0,0003.13,0004.82,0002.62
2023-08-13 07:58:00,SystemResetWarning,0830.9,5.01,000.00,029.4,025.7,000.0,037.7,030.7,21.7,0000.0,0003.15,0005.00,0002.62
2023-08-13 07:59:00,SystemResetWarning,0830.9,5.00,000.00,029.3,025.8,000.0,037.7,030.6,21.7,0000.0,0003.17,0005.19,0002.61
